Location: Churchill Northern Studies Centre
(58.7378°N, 93.8201°W)
Time: 10:01:08
(UTC-05:00)

Envisat - Pass Details

Date: 14 October 2017
Orbit: 764 x 766 km, 98.2° (Epoch: 23 October)

Event Time Altitude Azimuth Distance (km) Brightness Sun altitude
Exits shadow 22:40:26 - 240° (WSW) 2,488 5.8 -33.1°
Reaches altitude 10° 22:41:18 10° 248° (WSW) 2,307 5.7 -33.2°
Maximum altitude 22:43:52 14° 279° (W) 2,050 5.7 -33.4°
Drops below altitude 10° 22:46:28 10° 310° (NW) 2,315 6.3 -33.7°
Sets 22:50:01 0° 336° (NNW) 3,247 7.2 -34.0°
